Time,TemperatureF,DewpointF,PressureIn,WindDirection,WindDirectionDegrees,WindSpeedMPH,WindSpeedGustMPH,Humidity,HourlyPrecipIn,Conditions,Clouds,dailyrainin,SoftwareType,DateUTC
2013-04-16 00:02:00,16.0,15.0,-100.00,SE,127,11.0,16.0,97,0.00,,,-99.99,,2013-04-16 06:02:00,
2013-04-16 00:12:00,16.0,15.0,-100.00,SE,130,14.0,25.0,95,0.00,,,-99.99,,2013-04-16 06:12:00,
2013-04-16 00:22:00,16.0,15.0,-100.00,SE,136,22.0,29.0,95,0.00,,,-99.99,,2013-04-16 06:22:00,
2013-04-16 00:32:00,16.0,15.0,-100.00,SE,137,26.0,33.0,96,0.00,,,-99.99,,2013-04-16 06:32:00,
2013-04-16 00:42:00,15.0,15.0,-100.00,SE,136,22.0,31.0,96,0.00,,,-99.99,,2013-04-16 06:42:00,
2013-04-16 00:52:00,16.0,15.0,-100.00,SE,134,22.0,30.0,95,0.00,,,-99.99,,2013-04-16 06:52:00,
2013-04-16 01:02:00,16.0,14.0,-100.00,SE,140,29.0,35.0,94,0.00,,,-99.99,,2013-04-16 07:02:00,
2013-04-16 01:12:00,16.0,14.0,-100.00,SE,140,28.0,35.0,94,0.00,,,-99.99,,2013-04-16 07:12:00,
2013-04-16 01:22:00,16.0,14.0,-100.00,SE,140,25.0,32.0,91,0.00,,,-99.99,,2013-04-16 07:22:00,
2013-04-16 01:32:00,17.0,14.0,-100.00,SSE,150,26.0,33.0,87,0.00,,,-99.99,,2013-04-16 07:32:00,
2013-04-16 01:42:00,17.0,13.0,-100.00,SSE,150,26.0,34.0,84,0.00,,,-99.99,,2013-04-16 07:42:00,
2013-04-16 01:53:00,17.0,13.0,-100.00,SSE,157,22.0,29.0,84,0.00,,,-99.99,,2013-04-16 07:53:00,
2013-04-16 02:02:00,17.0,14.0,-100.00,SSE,154,24.0,34.0,88,0.00,,,-99.99,,2013-04-16 08:02:00,
2013-04-16 02:12:00,17.0,13.0,-100.00,SSE,155,23.0,34.0,87,0.00,,,-99.99,,2013-04-16 08:12:00,
2013-04-16 02:22:00,17.0,13.0,-100.00,SSE,158,21.0,29.0,85,0.01,,,-99.99,,2013-04-16 08:22:00,
2013-04-16 02:32:00,16.0,13.0,-100.00,SSE,151,21.0,29.0,90,0.01,,,-99.99,,2013-04-16 08:32:00,
2013-04-16 02:42:00,15.0,13.0,-100.00,SSE,148,24.0,32.0,94,0.04,,,-99.99,,2013-04-16 08:42:00,
2013-04-16 02:52:00,15.0,13.0,-100.00,SE,144,26.0,35.0,95,0.01,,,-99.99,,2013-04-16 08:52:00,
2013-04-16 03:02:00,14.0,13.0,-100.00,SE,138,22.0,31.0,96,0.03,,,-99.99,,2013-04-16 09:02:00,
2013-04-16 03:12:00,14.0,13.0,-100.00,SE,134,20.0,28.0,96,0.04,,,-99.99,,2013-04-16 09:12:00,
2013-04-16 03:22:00,14.0,14.0,-100.00,SE,137,17.0,25.0,97,0.06,,,-99.99,,2013-04-16 09:22:00,
2013-04-16 03:33:00,14.0,14.0,-100.00,SE,134,21.0,29.0,97,0.01,,,-99.99,,2013-04-16 09:33:00,
2013-04-16 03:42:00,14.0,13.0,-100.00,SE,136,26.0,35.0,97,0.01,,,-99.99,,2013-04-16 09:42:00,
2013-04-16 03:52:00,14.0,13.0,-100.00,SE,140,27.0,37.0,96,0.01,,,-99.99,,2013-04-16 09:52:00,
2013-04-16 04:03:00,14.0,13.0,-100.00,SE,138,26.0,34.0,96,0.01,,,-99.99,,2013-04-16 10:03:00,
2013-04-16 04:13:00,15.0,14.0,-100.00,SE,137,26.0,34.0,97,0.03,,,-99.99,,2013-04-16 10:13:00,
2013-04-16 04:22:00,14.0,13.0,-100.00,SE,143,29.0,37.0,96,0.00,,,-99.99,,2013-04-16 10:22:00,
2013-04-16 04:33:00,14.0,13.0,-100.00,SE,141,29.0,35.0,95,0.01,,,-99.99,,2013-04-16 10:33:00,
2013-04-16 04:42:00,14.0,13.0,-100.00,SE,143,30.0,39.0,95,0.00,,,-99.99,,2013-04-16 10:42:00,
2013-04-16 04:52:00,14.0,13.0,-100.00,SE,143,30.0,37.0,95,0.01,,,-99.99,,2013-04-16 10:52:00,
2013-04-16 05:02:00,14.0,13.0,-100.00,SE,138,29.0,37.0,95,0.07,,,-99.99,,2013-04-16 11:02:00,
2013-04-16 05:12:00,14.0,13.0,-100.00,SE,137,29.0,37.0,96,0.04,,,-99.99,,2013-04-16 11:12:00,
2013-04-16 05:22:00,14.0,13.0,-100.00,SE,136,26.0,34.0,96,0.11,,,-99.99,,2013-04-16 11:22:00,
2013-04-16 05:32:00,14.0,13.0,-100.00,SE,136,26.0,36.0,96,0.11,,,-99.99,,2013-04-16 11:32:00,
2013-04-16 05:42:00,14.0,13.0,-100.00,SE,136,26.0,35.0,97,0.06,,,-99.99,,2013-04-16 11:42:00,
2013-04-16 05:52:00,14.0,13.0,-100.00,SE,134,26.0,36.0,97,0.06,,,-99.99,,2013-04-16 11:52:00,
2013-04-16 06:02:00,14.0,13.0,-100.00,SE,136,29.0,38.0,97,0.03,,,-99.99,,2013-04-16 12:02:00,
2013-04-16 06:12:00,14.0,13.0,-100.00,SE,137,29.0,35.0,97,0.11,,,-99.99,,2013-04-16 12:12:00,
2013-04-16 06:22:00,14.0,13.0,-100.00,SE,134,27.0,35.0,96,0.01,,,-99.99,,2013-04-16 12:22:00,
2013-04-16 06:32:00,14.0,13.0,-100.00,SE,136,28.0,37.0,97,0.03,,,-99.99,,2013-04-16 12:32:00,
2013-04-16 06:42:00,14.0,13.0,-100.00,SE,136,29.0,37.0,97,0.06,,,-99.99,,2013-04-16 12:42:00,
2013-04-16 06:52:00,14.0,13.0,-100.00,SE,138,31.0,39.0,96,0.07,,,-99.99,,2013-04-16 12:52:00,
2013-04-16 07:02:00,15.0,14.0,-100.00,SE,138,30.0,37.0,97,0.07,,,-99.99,,2013-04-16 13:02:00,
2013-04-16 07:12:00,14.0,13.0,-100.00,SE,136,29.0,37.0,96,0.00,,,-99.99,,2013-04-16 13:12:00,
2013-04-16 07:22:00,15.0,14.0,-100.00,SE,134,25.0,34.0,96,0.00,,,-99.99,,2013-04-16 13:22:00,
2013-04-16 07:32:00,15.0,14.0,-100.00,SE,133,26.0,34.0,96,0.00,,,-99.99,,2013-04-16 13:32:00,
2013-04-16 07:42:00,15.0,14.0,-100.00,SE,131,20.0,28.0,96,0.00,,,-99.99,,2013-04-16 13:42:00,
2013-04-16 07:52:00,15.0,14.0,-100.00,SE,134,26.0,34.0,97,0.00,,,-99.99,,2013-04-16 13:52:00,
2013-04-16 08:02:00,15.0,14.0,-100.00,SE,136,27.0,34.0,96,0.01,,,-99.99,,2013-04-16 14:02:00,
2013-04-16 08:12:00,15.0,14.0,-100.00,SE,136,26.0,32.0,96,0.04,,,-99.99,,2013-04-16 14:12:00,
2013-04-16 08:22:00,15.0,14.0,-100.00,SE,134,21.0,30.0,96,0.00,,,-99.99,,2013-04-16 14:22:00,
2013-04-16 08:32:00,16.0,15.0,-100.00,SE,133,19.0,29.0,96,0.00,,,-99.99,,2013-04-16 14:32:00,
2013-04-16 08:42:00,16.0,15.0,-100.00,SE,130,16.0,26.0,96,0.01,,,-99.99,,2013-04-16 14:42:00,
2013-04-16 08:52:00,16.0,15.0,-100.00,SE,127,14.0,21.0,95,0.00,,,-99.99,,2013-04-16 14:52:00,
2013-04-16 09:02:00,17.0,15.0,-100.00,SE,124,16.0,23.0,96,0.00,,,-99.99,,2013-04-16 15:02:00,
2013-04-16 09:12:00,17.0,16.0,-100.00,SE,126,15.0,24.0,96,0.00,,,-99.99,,2013-04-16 15:12:00,
2013-04-16 09:22:00,18.0,16.0,-100.00,SE,133,18.0,30.0,94,0.00,,,-99.99,,2013-04-16 15:22:00,
2013-04-16 09:33:00,17.0,16.0,-100.00,SE,138,23.0,32.0,94,0.00,,,-99.99,,2013-04-16 15:33:00,
2013-04-16 09:43:00,17.0,16.0,-100.00,SE,138,25.0,32.0,95,0.00,,,-99.99,,2013-04-16 15:43:00,
2013-04-16 09:52:00,18.0,17.0,-100.00,SE,137,27.0,34.0,95,0.00,,,-99.99,,2013-04-16 15:52:00,
2013-04-16 10:03:00,18.0,17.0,-100.00,SE,138,29.0,36.0,95,0.00,,,-99.99,,2013-04-16 16:03:00,
2013-04-16 10:13:00,18.0,17.0,-100.00,SE,138,30.0,36.0,95,0.01,,,-99.99,,2013-04-16 16:13:00,
2013-04-16 10:23:00,19.0,17.0,-100.00,SE,141,24.0,32.0,95,0.00,,,-99.99,,2013-04-16 16:23:00,
2013-04-16 10:32:00,19.0,18.0,-100.00,SE,138,24.0,31.0,94,0.00,,,-99.99,,2013-04-16 16:32:00,
2013-04-16 10:42:00,19.0,17.0,-100.00,SE,138,25.0,32.0,92,0.00,,,-99.99,,2013-04-16 16:42:00,
2013-04-16 10:52:00,20.0,18.0,-100.00,SE,137,23.0,31.0,94,0.00,,,-99.99,,2013-04-16 16:52:00,
2013-04-16 11:02:00,20.0,19.0,-100.00,SE,138,26.0,32.0,93,0.00,,,-99.99,,2013-04-16 17:02:00,
2013-04-16 11:12:00,21.0,19.0,-100.00,SE,137,22.0,31.0,94,0.00,,,-99.99,,2013-04-16 17:12:00,
2013-04-16 11:22:00,21.0,19.0,-100.00,SSE,147,28.0,35.0,94,0.01,,,-99.99,,2013-04-16 17:22:00,
2013-04-16 11:32:00,21.0,19.0,-100.00,SE,143,24.0,33.0,94,0.00,,,-99.99,,2013-04-16 17:32:00,
2013-04-16 11:43:00,21.0,20.0,-100.00,SE,141,24.0,29.0,95,0.00,,,-99.99,,2013-04-16 17:43:00,
2013-04-16 11:52:00,21.0,20.0,-100.00,SE,138,21.0,28.0,96,0.01,,,-99.99,,2013-04-16 17:52:00,
2013-04-16 12:02:00,20.0,20.0,-100.00,SE,136,19.0,27.0,97,0.11,,,-99.99,,2013-04-16 18:02:00,
2013-04-16 12:12:00,21.0,20.0,-100.00,SE,141,24.0,29.0,97,0.06,,,-99.99,,2013-04-16 18:12:00,
2013-04-16 12:22:00,21.0,20.0,-100.00,SE,138,22.0,29.0,97,0.11,,,-99.99,,2013-04-16 18:22:00,
2013-04-16 12:32:00,21.0,21.0,-100.00,SE,137,20.0,27.0,97,0.11,,,-99.99,,2013-04-16 18:32:00,
2013-04-16 12:42:00,22.0,21.0,-100.00,SE,136,17.0,24.0,98,0.20,,,-99.99,,2013-04-16 18:42:00,
2013-04-16 12:52:00,21.0,21.0,-100.00,SE,130,11.0,21.0,98,0.04,,,-99.99,,2013-04-16 18:52:00,
2013-04-16 13:02:00,21.0,21.0,-100.00,SE,133,16.0,25.0,99,0.10,,,-99.99,,2013-04-16 19:02:00,
2013-04-16 13:12:00,21.0,21.0,-100.00,SE,136,18.0,28.0,99,0.16,,,-99.99,,2013-04-16 19:12:00,
2013-04-16 13:22:00,21.0,21.0,-100.00,SE,137,19.0,27.0,99,0.23,,,-99.99,,2013-04-16 19:22:00,
2013-04-16 13:32:00,22.0,21.0,-100.00,SE,136,20.0,26.0,99,0.18,,,-99.99,,2013-04-16 19:32:00,
2013-04-16 13:52:00,22.0,21.0,-100.00,SE,137,19.0,24.0,98,0.11,,,-99.99,,2013-04-16 19:52:00,
2013-04-16 14:02:00,22.0,21.0,-100.00,SE,137,19.0,24.0,98,0.08,,,-99.99,,2013-04-16 20:02:00,
2013-04-16 14:12:00,22.0,21.0,-100.00,SE,138,19.0,24.0,98,0.11,,,-99.99,,2013-04-16 20:12:00,
2013-04-16 14:32:00,22.0,22.0,-100.00,SE,130,11.0,20.0,97,0.00,,,-99.99,,2013-04-16 20:32:00,
2013-04-16 14:42:00,23.0,23.0,-100.00,SE,131,9.0,15.0,98,0.01,,,-99.99,,2013-04-16 20:42:00,
2013-04-16 14:52:00,23.0,22.0,-100.00,SE,134,13.0,21.0,95,0.01,,,-99.99,,2013-04-16 20:52:00,
2013-04-16 15:02:00,23.0,22.0,-100.00,SE,138,14.0,20.0,95,0.07,,,-99.99,,2013-04-16 21:02:00,
2013-04-16 15:12:00,23.0,22.0,-100.00,SE,137,13.0,17.0,96,0.03,,,-99.99,,2013-04-16 21:12:00,
2013-04-16 15:22:00,24.0,23.0,-100.00,SE,143,15.0,20.0,97,0.07,,,-99.99,,2013-04-16 21:22:00,
2013-04-16 15:32:00,24.0,23.0,-100.00,SE,138,12.0,17.0,97,0.03,,,-99.99,,2013-04-16 21:32:00,
2013-04-16 15:52:00,23.0,23.0,-100.00,SE,141,12.0,15.0,98,0.20,,,-99.99,,2013-04-16 21:52:00,
2013-04-16 16:02:00,23.0,23.0,-100.00,SE,140,12.0,19.0,98,0.18,,,-99.99,,2013-04-16 22:02:00,
2013-04-16 16:13:00,23.0,23.0,-100.00,SE,137,12.0,19.0,98,0.16,,,-99.99,,2013-04-16 22:13:00,
2013-04-16 16:22:00,24.0,23.0,-100.00,SE,136,11.0,16.0,98,0.03,,,-99.99,,2013-04-16 22:22:00,
2013-04-16 16:33:00,24.0,23.0,-100.00,SE,127,9.0,14.0,98,0.00,,,-99.99,,2013-04-16 22:33:00,
2013-04-16 16:42:00,24.0,23.0,-100.00,SE,134,10.0,17.0,98,0.01,,,-99.99,,2013-04-16 22:42:00,
2013-04-16 16:52:00,24.0,23.0,-100.00,SE,133,9.0,15.0,97,0.03,,,-99.99,,2013-04-16 22:52:00,
2013-04-16 17:02:00,23.0,23.0,-100.00,SE,134,12.0,19.0,98,0.04,,,-99.99,,2013-04-16 23:02:00,
2013-04-16 17:12:00,24.0,23.0,-100.00,SE,134,12.0,17.0,98,0.01,,,-99.99,,2013-04-16 23:12:00,
2013-04-16 17:22:00,23.0,22.0,-100.00,SE,134,14.0,21.0,98,0.07,,,-99.99,,2013-04-16 23:22:00,
2013-04-16 17:32:00,22.0,22.0,-100.00,SE,136,14.0,22.0,98,0.01,,,-99.99,,2013-04-16 23:32:00,
2013-04-16 17:42:00,22.0,22.0,-100.00,SE,137,15.0,21.0,98,0.06,,,-99.99,,2013-04-16 23:42:00,
2013-04-16 17:52:00,22.0,22.0,-100.00,SE,134,13.0,17.0,98,0.10,,,-99.99,,2013-04-16 23:52:00,
2013-04-16 18:02:00,22.0,22.0,-100.00,SE,136,16.0,22.0,99,0.07,,,-99.99,,2013-04-17 00:02:00,
2013-04-16 18:12:00,22.0,22.0,-100.00,SE,136,16.0,22.0,99,0.04,,,-99.99,,2013-04-17 00:12:00,
2013-04-16 18:22:00,22.0,22.0,-100.00,SE,136,19.0,26.0,99,0.11,,,-99.99,,2013-04-17 00:22:00,
2013-04-16 18:32:00,22.0,22.0,-100.00,SE,134,18.0,25.0,99,0.06,,,-99.99,,2013-04-17 00:32:00,
2013-04-16 18:42:00,22.0,22.0,-100.00,SE,134,17.0,25.0,99,0.03,,,-99.99,,2013-04-17 00:42:00,
2013-04-16 18:52:00,22.0,21.0,-100.00,SE,136,20.0,29.0,99,0.10,,,-99.99,,2013-04-17 00:52:00,
2013-04-16 19:02:00,22.0,21.0,-100.00,SE,136,19.0,28.0,99,0.03,,,-99.99,,2013-04-17 01:02:00,
2013-04-16 19:12:00,22.0,22.0,-100.00,SE,134,16.0,24.0,99,0.01,,,-99.99,,2013-04-17 01:12:00,
2013-04-16 19:22:00,22.0,21.0,-100.00,SE,134,17.0,24.0,99,0.06,,,-99.99,,2013-04-17 01:22:00,
2013-04-16 19:32:00,22.0,21.0,-100.00,SE,136,21.0,28.0,99,0.00,,,-99.99,,2013-04-17 01:32:00,
2013-04-16 19:42:00,21.0,21.0,-100.00,SE,134,20.0,26.0,99,0.00,,,-99.99,,2013-04-17 01:42:00,
2013-04-16 19:52:00,22.0,21.0,-100.00,SE,137,20.0,28.0,98,0.04,,,-99.99,,2013-04-17 01:52:00,
2013-04-16 20:02:00,21.0,21.0,-100.00,SE,137,21.0,27.0,98,0.03,,,-99.99,,2013-04-17 02:02:00,
2013-04-16 20:12:00,21.0,21.0,-100.00,SE,137,21.0,28.0,98,0.01,,,-99.99,,2013-04-17 02:12:00,
2013-04-16 20:22:00,21.0,20.0,-100.00,SE,140,23.0,31.0,97,0.01,,,-99.99,,2013-04-17 02:22:00,
2013-04-16 20:32:00,20.0,19.0,-100.00,SE,141,26.0,34.0,95,0.00,,,-99.99,,2013-04-17 02:32:00,
2013-04-16 20:42:00,20.0,19.0,-100.00,SE,138,24.0,30.0,96,0.00,,,-99.99,,2013-04-17 02:42:00,
2013-04-16 20:52:00,20.0,19.0,-100.00,SE,140,26.0,32.0,95,0.01,,,-99.99,,2013-04-17 02:52:00,
2013-04-16 21:02:00,20.0,18.0,-100.00,SE,143,24.0,29.0,95,0.00,,,-99.99,,2013-04-17 03:02:00,
2013-04-16 21:12:00,20.0,18.0,-100.00,SE,140,23.0,29.0,95,0.00,,,-99.99,,2013-04-17 03:12:00,
2013-04-16 21:22:00,20.0,18.0,-100.00,SE,143,24.0,34.0,95,0.01,,,-99.99,,2013-04-17 03:22:00,
2013-04-16 21:33:00,20.0,18.0,-100.00,SE,143,22.0,29.0,95,0.00,,,-99.99,,2013-04-17 03:33:00,
2013-04-16 21:42:00,20.0,18.0,-100.00,SE,140,24.0,28.0,95,0.04,,,-99.99,,2013-04-17 03:42:00,
2013-04-16 21:53:00,19.0,18.0,-100.00,SE,141,22.0,28.0,97,0.06,,,-99.99,,2013-04-17 03:53:00,
2013-04-16 22:03:00,19.0,19.0,-100.00,SE,143,22.0,29.0,97,0.06,,,-99.99,,2013-04-17 04:03:00,
2013-04-16 22:13:00,19.0,18.0,-100.00,SE,144,24.0,32.0,97,0.04,,,-99.99,,2013-04-17 04:13:00,
2013-04-16 22:22:00,19.0,18.0,-100.00,SE,143,26.0,32.0,97,0.01,,,-99.99,,2013-04-17 04:22:00,
2013-04-16 22:33:00,19.0,18.0,-100.00,SE,140,23.0,32.0,97,0.01,,,-99.99,,2013-04-17 04:33:00,
2013-04-16 22:42:00,19.0,19.0,-100.00,SE,144,26.0,32.0,98,0.06,,,-99.99,,2013-04-17 04:42:00,
2013-04-16 22:52:00,19.0,19.0,-100.00,SSE,147,26.0,32.0,97,0.01,,,-99.99,,2013-04-17 04:52:00,
2013-04-16 23:02:00,19.0,18.0,-100.00,SSE,147,26.0,34.0,96,0.03,,,-99.99,,2013-04-17 05:02:00,
2013-04-16 23:12:00,19.0,18.0,-100.00,SSE,148,25.0,34.0,97,0.03,,,-99.99,,2013-04-17 05:12:00,
2013-04-16 23:22:00,19.0,18.0,-100.00,SSE,147,23.0,29.0,97,0.01,,,-99.99,,2013-04-17 05:22:00,
2013-04-16 23:32:00,19.0,18.0,-100.00,SE,145,26.0,35.0,97,0.01,,,-99.99,,2013-04-17 05:32:00,
2013-04-16 23:42:00,18.0,18.0,-100.00,SSE,148,24.0,32.0,97,0.01,,,-99.99,,2013-04-17 05:42:00,
2013-04-16 23:52:00,18.0,18.0,-100.00,SE,145,26.0,31.0,97,0.04,,,-99.99,,2013-04-17 05:52:00,